EW3937 Weather Reports


Display with metric or nautical units.
time (UTC)temp
F
wind
direction
speed
MPH
gust
MPH
rain 1hr
in
rain 24hr
in
rain mn
in
humidity
%
barometer
mb
20260903202503 60 39 1.0 3.0 0.00 0.42 0.35 71 1011.7
20260903202003 60 46 0.0 3.0 0.00 0.42 0.35 71 1011.7
20260903201503 60 0 0.0 3.0 0.00 0.42 0.35 72 1011.8
20260903201003 61 334 0.0 3.0 0.00 0.42 0.35 72 1011.8
20260903200503 61 319 1.0 3.0 0.00 0.42 0.35 72 1011.8
20260903200217 60 46 1.0 2.0 0.00 0.42 0.35 73 1011.8
20260903195718 60 61 1.0 4.0 0.00 0.42 0.35 73 1011.8
20260903195003 60 44 1.0 3.0 0.00 0.42 0.35 74 1012.0
20260903194503 60 58 1.0 3.0 0.00 0.42 0.35 75 1011.9
20260903194003 60 12 1.0 3.0 0.00 0.42 0.35 73 1012.0
20260903193503 60 323 1.0 3.0 0.00 0.42 0.35 72 1012.1
20260903193217 60 328 1.0 4.0 0.00 0.42 0.35 74 1012.1
20260903192503 60 59 0.0 4.0 0.00 0.42 0.35 76 1012.3
20260903192003 59 312 0.0 3.0 0.00 0.42 0.35 79 1012.3
20260903191503 58 301 0.0 3.0 0.00 0.42 0.35 78 1012.3
20260903191003 58 291 0.0 2.0 0.00 0.42 0.35 79 1012.5
20260903190503 58 306 0.0 3.0 0.00 0.42 0.35 81 1012.4
20260903190003 58 0 0.0 3.0 0.00 0.42 0.35 77 1012.6
20260903185503 58 0 0.0 3.0 0.00 0.42 0.35 79 1012.6
20260903185003 58 0 0.0 3.0 0.00 0.42 0.35 77 1012.6
20260903184503 58 0 0.0 3.0 0.00 0.42 0.35 79 1012.6
20260903184218 58 0 0.0 3.0 0.00 0.42 0.35 77 1012.6
20260903183503 58 75 0.0 3.0 0.00 0.42 0.35 78 1012.6
20260903183003 58 85 1.0 4.0 0.00 0.42 0.35 80 1012.7
20260903182503 58 97 1.0 4.0 0.00 0.42 0.35 80 1012.6
20260903182003 58 88 1.0 3.0 0.00 0.42 0.35 78 1012.6
20260903181503 58 81 0.0 3.0 0.00 0.42 0.35 83 1012.5
20260903181218 58 76 0.0 3.0 0.00 0.42 0.35 83 1012.6
20260903180717 57 83 1.0 2.0 0.00 0.42 0.35 84 1012.7
20260903180003 56 91 1.0 4.0 0.00 0.42 0.35 86 1012.7
20260903175503 56 93 0.0 3.0 0.00 0.42 0.35 85 1012.7
20260903175003 56 0 0.0 5.0 0.00 0.42 0.35 86 1012.7
20260903174503 56 0 0.0 5.0 0.00 0.42 0.35 86 1012.7
20260903174003 56 0 0.0 2.0 0.00 0.42 0.35 86 1012.7
20260903173503 56 0 0.0 2.0 0.00 0.42 0.35 86 1012.6
20260903173003 56 0 0.0 1.0 0.00 0.42 0.35 89 1012.7
20260903172503 55 0 0.0 1.0 0.00 0.42 0.35 88 1012.7
20260903172003 55 0 0.0 1.0 0.00 0.42 0.35 89 1012.6
20260903171717 55 0 0.0 1.0 0.00 0.42 0.35 90 1012.6
20260903171218 54 0 0.0 1.0 0.00 0.42 0.35 89 1012.7
20260903170503 54 0 0.0 2.0 0.00 0.42 0.35 90 1012.6
20260903170003 54 0 0.0 2.0 0.00 0.42 0.35 90 1012.6
20260903165503 54 159 0.0 1.0 0.00 0.42 0.35 90 1012.6
20260903165003 53 158 1.0 3.0 0.01 0.42 0.35 90 1012.5
20260903164503 53 160 1.0 4.0 0.01 0.42 0.35 90 1012.4
20260903164003 53 141 0.0 4.0 0.02 0.42 0.35 91 1012.5
20260903163503 53 0 0.0 2.0 0.02 0.42 0.35 91 1012.5
20260903163003 53 0 0.0 1.0 0.02 0.42 0.35 91 1012.4
20260903162503 53 0 0.0 2.0 0.02 0.42 0.35 91 1012.3
20260903162003 53 0 0.0 2.0 0.02 0.42 0.35 92 1012.4
20260903161716 52 0 0.0 1.0 0.02 0.42 0.35 91 1012.3
20260903161003 53 0 0.0 1.0 0.02 0.42 0.35 92 1012.3
20260903160503 53 0 0.0 1.0 0.02 0.42 0.35 92 1012.2
20260903160217 53 0 0.0 1.0 0.02 0.42 0.35 92 1012.2
20260903155503 52 0 0.0 1.0 0.02 0.42 0.35 92 1012.3
20260903155003 52 0 0.0 0.0 0.01 0.41 0.34 92 1012.3
20260903154503 52 0 0.0 1.0 0.01 0.42 0.34 92 1012.4
20260903154003 52 0 0.0 1.0 0.00 0.41 0.33 92 1012.4
20260903153503 52 0 0.0 1.0 0.00 0.41 0.33 92 1012.4
20260903153003 52 0 0.0 1.0 0.00 0.41 0.33 92 1012.4
20260903152503 52 0 0.0 1.0 0.00 0.41 0.33 92 1012.4
20260903152217 52 0 0.0 0.0 0.00 0.42 0.33 92 1012.4
20260903151503 52 0 0.0 1.0 0.00 0.42 0.33 92 1012.4
20260903151003 51 0 0.0 1.0 0.00 0.42 0.33 92 1012.3
20260903150503 51 0 0.0 1.0 0.00 0.42 0.33 92 1012.3
20260903150003 51 0 0.0 1.0 0.00 0.42 0.33 92 1012.2
20260903145503 51 0 0.0 1.0 0.00 0.42 0.33 92 1012.2
20260903145003 50 0 0.0 0.0 0.00 0.42 0.33 92 1012.1
20260903144503 50 0 0.0 0.0 0.00 0.42 0.33 92 1012.2
20260903144003 50 0 0.0 0.0 0.00 0.42 0.33 92 1012.3
20260903143718 50 0 0.0 0.0 0.00 0.42 0.33 92 1012.2
20260903143217 50 0 0.0 0.0 0.00 0.42 0.33 92 1012.2
20260903142503 50 0 0.0 0.0 0.00 0.42 0.33 92 1012.1
20260903142003 50 0 0.0 0.0 0.00 0.42 0.33 91 1012.0
20260903141503 51 0 0.0 0.0 0.00 0.42 0.33 91 1012.0
20260903141003 51 0 0.0 0.0 0.00 0.42 0.33 91 1011.9
20260903140503 51 0 0.0 0.0 0.00 0.42 0.33 91 1011.9
20260903140003 51 0 0.0 0.0 0.00 0.42 0.33 91 1011.9
20260903135503 51 0 0.0 0.0 0.00 0.42 0.33 91 1011.9
20260903135003 51 0 0.0 0.0 0.00 0.42 0.33 91 1011.8
20260903134717 51 0 0.0 0.0 0.00 0.42 0.33 91 1011.9
20260903134003 51 0 0.0 0.0 0.00 0.42 0.33 91 1011.9
20260903133717 51 0 0.0 0.0 0.00 0.42 0.33 91 1011.7
20260903133003 51 0 0.0 0.0 0.00 0.42 0.33 91 1011.8
20260903132503 51 0 0.0 0.0 0.00 0.42 0.33 91 1011.7
20260903132003 51 0 0.0 0.0 0.00 0.42 0.33 91 1011.6
20260903131503 51 0 0.0 0.0 0.00 0.42 0.33 91 1011.6
20260903131003 51 0 0.0 0.0 0.00 0.42 0.33 91 1011.3
20260903130503 51 0 0.0 0.0 0.00 0.42 0.33 91 1011.3
20260903130004 51 0 0.0 0.0 0.00 0.42 0.33 91 1011.3
20260903125503 51 0 0.0 0.0 0.00 0.42 0.33 91 1011.2
20260903125003 51 0 0.0 0.0 0.00 0.42 0.33 91 1011.2
20260903124503 51 0 0.0 0.0 0.00 0.42 0.33 91 1011.1
20260903124003 51 0 0.0 0.0 0.00 0.42 0.33 91 1011.1
20260903123717 51 0 0.0 0.0 0.00 0.42 0.33 91 1011.1
20260903123003 51 0 0.0 0.0 0.00 0.42 0.33 91 1011.0
20260903122717 51 0 0.0 0.0 0.00 0.42 0.33 91 1010.9
20260903122003 51 0 0.0 0.0 0.00 0.42 0.33 91 1010.9
20260903121503 51 0 0.0 0.0 0.00 0.42 0.33 91 1010.9
20260903121003 51 0 0.0 0.0 0.00 0.42 0.33 91 1010.8
20260903120503 51 0 0.0 0.0 0.00 0.42 0.33 91 1010.7
20260903120003 51 0 0.0 0.0 0.00 0.42 0.33 91 1010.8
20260903115503 51 0 0.0 0.0 0.00 0.42 0.33 91 1010.8
20260903115003 51 0 0.0 0.0 0.00 0.42 0.33 91 1010.8
20260903114503 51 0 0.0 0.0 0.00 0.42 0.33 91 1010.8
20260903114003 51 0 0.0 0.0 0.00 0.42 0.33 91 1010.9
20260903113503 51 0 0.0 0.0 0.00 0.42 0.33 91 1011.0
20260903113003 51 0 0.0 0.0 0.00 0.42 0.33 91 1011.0
20260903112503 51 0 0.0 0.0 0.01 0.42 0.33 91 1011.0
20260903112003 51 0 0.0 0.0 0.01 0.42 0.33 91 1010.9
20260903111503 51 0 0.0 0.0 0.02 0.42 0.33 91 1010.8
20260903111003 51 0 0.0 0.0 0.03 0.42 0.33 91 1010.7
20260903110503 51 0 0.0 0.0 0.04 0.42 0.33 91 1010.7
20260903110003 51 0 0.0 0.0 0.05 0.42 0.33 91 1010.7
20260903105503 51 0 0.0 0.0 0.06 0.42 0.33 91 1010.7
20260903105003 51 0 0.0 0.0 0.09 0.42 0.33 91 1010.7
20260903104503 51 0 0.0 0.0 0.13 0.42 0.33 91 1010.6
20260903104003 51 0 0.0 0.0 0.19 0.42 0.33 91 1010.3
20260903103503 51 0 0.0 0.0 0.19 0.42 0.33 91 1010.3
20260903103003 51 0 0.0 0.0 0.19 0.42 0.33 92 1010.4
20260903102503 51 0 0.0 0.0 0.18 0.41 0.32 92 1010.4
20260903102003 51 0 0.0 0.0 0.18 0.41 0.32 92 1010.4
20260903101503 52 0 0.0 0.0 0.17 0.40 0.31 92 1010.3
20260903101217 52 0 0.0 0.0 0.16 0.39 0.30 92 1010.3
20260903100504 52 0 0.0 0.0 0.16 0.38 0.29 92 1010.4
20260903100217 52 0 0.0 0.0 0.15 0.37 0.28 92 1010.4
20260903095503 52 0 0.0 0.0 0.15 0.36 0.27 92 1010.4
20260903095217 52 0 0.0 0.0 0.13 0.34 0.25 92 1010.4
20260903094503 52 0 0.0 0.0 0.08 0.29 0.20 92 1010.3
20260903094003 52 0 0.0 0.0 0.03 0.23 0.14 92 1010.4
20260903093503 52 0 0.0 0.0 0.03 0.23 0.14 92 1010.2
20260903093003 52 0 0.0 0.0 0.04 0.23 0.14 92 1010.1
20260903092503 52 0 0.0 0.0 0.05 0.23 0.14 92 1010.0
20260903092003 52 0 0.0 0.0 0.06 0.23 0.14 92 1010.0
20260903091503 52 0 0.0 0.0 0.06 0.23 0.14 92 1010.0
20260903091003 52 0 0.0 0.0 0.06 0.22 0.13 92 1010.0
20260903090503 52 0 0.0 0.0 0.07 0.22 0.13 92 1010.0
20260903090003 52 0 0.0 0.0 0.06 0.21 0.12 92 1010.1
20260903085503 52 0 0.0 1.0 0.07 0.21 0.12 92 1010.1
20260903085003 52 0 0.0 1.0 0.07 0.21 0.12 92 1010.2
20260903084503 52 0 0.0 1.0 0.07 0.21 0.12 91 1010.2
20260903084003 52 0 0.0 0.0 0.07 0.20 0.11 91 1010.2
20260903083503 52 0 0.0 0.0 0.08 0.20 0.11 91 1010.2
20260903083003 52 0 0.0 0.0 0.08 0.19 0.10 91 1010.2
20260903082503 52 0 0.0 0.0 0.07 0.18 0.09 91 1010.3
20260903082003 52 0 0.0 0.0 0.06 0.17 0.08 91 1010.2
20260903081503 52 0 0.0 1.0 0.07 0.17 0.08 91 1010.1
20260903081003 52 0 0.0 1.0 0.06 0.16 0.07 91 1010.1
20260903080503 52 0 0.0 1.0 0.06 0.15 0.06 91 1010.1
20260903080003 52 0 0.0 0.0 0.06 0.15 0.06 91 1010.1
20260903075503 52 0 0.0 1.0 0.05 0.14 0.05 91 1010.1
20260903075003 52 0 0.0 1.0 0.06 0.14 0.05 91 1010.1
20260903074503 52 0 0.0 1.0 0.06 0.14 0.05 91 1010.0
20260903074003 52 0 0.0 1.0 0.05 0.13 0.04 90 1010.0
20260903073503 52 0 0.0 1.0 0.04 0.12 0.03 90 1010.0
20260903073003 53 0 0.0 1.0 0.03 0.11 0.02 90 1009.9
20260903072503 53 0 0.0 2.0 0.03 0.11 0.02 90 1009.9
20260903072003 53 0 0.0 2.0 0.03 0.11 0.02 89 1009.9
20260903071503 53 0 0.0 2.0 0.02 0.10 0.01 89 1009.9
20260903071003 53 0 0.0 2.0 0.02 0.10 0.01 89 1009.9
20260903070503 53 0 0.0 2.0 0.01 0.09 0.00 88 1010.0
20260903070004 53 0 0.0 1.0 0.01 0.09 0.00 88 1010.0
20260903065503 54 0 0.0 2.0 0.01 0.09 0.09 87 1010.0
20260903065218 54 0 0.0 2.0 0.01 0.09 0.09 87 1009.9
20260903064503 54 0 0.0 3.0 0.00 0.08 0.08 86 1010.0
20260903064218 54 248 0.0 3.0 0.00 0.08 0.08 86 1010.0
20260903063503 54 249 1.0 4.0 0.00 0.08 0.08 84 1010.0
20260903063003 55 244 2.0 5.0 0.00 0.08 0.08 83 1010.0
20260903062503 55 239 3.0 6.0 0.00 0.08 0.08 82 1010.0
20260903062003 55 230 3.0 8.0 0.00 0.08 0.08 81 1009.9
20260903061503 55 228 3.0 8.0 0.00 0.08 0.08 80 1009.8
20260903061218 55 227 3.0 8.0 0.00 0.08 0.08 80 1009.7
20260903060503 56 225 5.0 9.0 0.00 0.08 0.08 80 1009.7
20260903060003 56 224 5.0 9.0 0.00 0.08 0.08 80 1009.7
20260903055503 56 223 4.0 12.0 0.00 0.08 0.08 80 1009.7
20260903055003 56 221 4.0 12.0 0.00 0.08 0.08 80 1009.6
20260903054716 56 221 3.0 12.0 0.00 0.08 0.08 80 1009.7
20260903054217 55 225 2.0 9.0 0.00 0.08 0.08 80 1009.6
20260903053503 56 234 2.0 7.0 0.00 0.08 0.08 80 1009.6
20260903053003 55 238 1.0 7.0 0.00 0.08 0.08 80 1009.7
20260903052503 55 237 1.0 6.0 0.00 0.08 0.08 81 1009.8
20260903052003 55 236 0.0 4.0 0.00 0.08 0.08 81 1009.9
20260903051503 55 0 0.0 4.0 0.00 0.08 0.08 82 1009.9
20260903051003 55 0 0.0 4.0 0.00 0.08 0.08 82 1009.8
20260903050503 55 0 0.0 2.0 0.00 0.08 0.08 82 1009.8
20260903050003 55 298 0.0 2.0 0.00 0.08 0.08 82 1009.9
20260903045503 55 283 1.0 3.0 0.00 0.08 0.08 82 1009.9
20260903045003 55 245 1.0 3.0 0.00 0.08 0.08 81 1009.9
20260903044503 55 233 1.0 3.0 0.00 0.08 0.08 81 1009.8
20260903044003 55 247 1.0 5.0 0.00 0.08 0.08 81 1009.8
20260903043503 55 259 1.0 5.0 0.00 0.08 0.08 81 1009.8
20260903043003 55 255 1.0 5.0 0.00 0.08 0.08 82 1009.7
20260903042503 55 251 1.0 4.0 0.00 0.08 0.08 82 1009.8
20260903042003 55 258 1.0 6.0 0.00 0.08 0.08 83 1009.7
20260903041503 55 265 1.0 6.0 0.00 0.08 0.08 84 1009.7
20260903041003 54 262 0.0 5.0 0.00 0.08 0.08 86 1009.7
20260903040503 54 0 0.0 3.0 0.00 0.08 0.08 87 1009.6
20260903040003 54 0 0.0 3.0 0.00 0.08 0.08 87 1009.6
20260903035718 54 0 0.0 3.0 0.00 0.08 0.08 87 1009.6
20260903035003 54 224 0.0 1.0 0.00 0.08 0.08 87 1009.5
20260903034503 54 223 1.0 2.0 0.00 0.08 0.08 86 1009.4
20260903034217 55 234 1.0 6.0 0.00 0.08 0.08 84 1009.4
20260903033503 55 235 1.0 6.0 0.00 0.08 0.08 84 1009.3
20260903033003 55 230 2.0 5.0 0.00 0.08 0.08 85 1009.2
20260903032503 55 232 2.0 7.0 0.00 0.08 0.08 85 1009.2
20260903032003 55 235 1.0 7.0 0.00 0.08 0.08 85 1009.1
20260903031717 55 236 1.0 6.0 0.00 0.08 0.08 85 1009.1
20260903031003 55 233 1.0 4.0 0.00 0.08 0.08 85 1009.2
20260903030503 55 235 1.0 5.0 0.00 0.08 0.08 85 1009.1
20260903030003 56 234 1.0 5.0 0.00 0.08 0.08 86 1009.0
20260903025503 56 228 1.0 5.0 0.00 0.08 0.08 86 1009.0
20260903025003 56 230 1.0 5.0 0.01 0.08 0.08 86 1009.0
20260903024717 56 234 1.0 4.0 0.02 0.08 0.08 86 1009.0
20260903024003 56 248 1.0 4.0 0.06 0.08 0.08 85 1009.0
20260903023503 57 249 1.0 7.0 0.06 0.08 0.08 85 1008.9
20260903023218 57 245 2.0 7.0 0.06 0.08 0.08 85 1008.9
20260903022503 57 233 2.0 10.0 0.06 0.08 0.08 83 1008.7
20260903022003 57 233 2.0 10.0 0.06 0.08 0.08 83 1008.9
20260903021503 58 234 2.0 7.0 0.06 0.08 0.08 84 1009.0
20260903021218 58 232 3.0 7.0 0.06 0.08 0.08 84 1009.0
20260903020503 58 222 3.0 9.0 0.06 0.08 0.08 83 1008.9
20260903020003 58 219 5.0 9.0 0.06 0.08 0.08 82 1008.8
20260903015503 59 223 7.0 12.0 0.06 0.08 0.08 80 1008.8
20260903015003 61 218 6.0 15.0 0.05 0.07 0.07 75 1008.7
20260903014503 63 216 4.0 15.0 0.02 0.04 0.04 68 1008.8
20260903014003 65 216 2.0 11.0 0.00 0.02 0.02 59 1008.6
20260903013503 65 212 2.0 3.0 0.00 0.02 0.02 55 1008.2
20260903013003 65 211 1.0 3.0 0.00 0.02 0.02 55 1008.2
20260903012717 65 208 0.0 2.0 0.00 0.02 0.02 55 1008.2
20260903012003 65 0 0.0 1.0 0.00 0.02 0.02 55 1008.1
20260903011503 65 0 0.0 1.0 0.00 0.02 0.02 54 1008.0
20260903011003 66 0 0.0 1.0 0.00 0.02 0.02 56 1007.9
20260903010503 66 0 0.0 1.0 0.00 0.02 0.02 54 1007.9
20260903010003 66 0 0.0 0.0 0.00 0.02 0.02 54 1008.0
20260903005503 66 0 0.0 1.0 0.00 0.02 0.02 54 1007.8
20260903005003 66 0 0.0 1.0 0.00 0.02 0.02 53 1007.7
20260903004503 66 0 0.0 1.0 0.00 0.02 0.02 53 1007.7
20260903004217 67 0 0.0 1.0 0.00 0.02 0.02 53 1007.7
20260903003503 67 0 0.0 1.0 0.00 0.02 0.02 53 1007.8
20260903003218 67 0 0.0 1.0 0.00 0.02 0.02 53 1007.8
20260903002503 68 0 0.0 1.0 0.00 0.02 0.02 52 1007.8
20260903002003 68 0 0.0 1.0 0.00 0.02 0.02 52 1007.7
20260903001503 68 0 0.0 1.0 0.00 0.02 0.02 53 1007.7
20260903001003 68 0 0.0 1.0 0.00 0.02 0.02 53 1007.8
20260903000718 68 0 0.0 1.0 0.00 0.02 0.02 52 1007.8
20260903000003 69 54 0.0 3.0 0.00 0.02 0.02 50 1007.8
20260902235503 70 51 1.0 3.0 0.00 0.02 0.02 49 1007.8
20260902235217 70 56 1.0 4.0 0.00 0.02 0.02 51 1007.8
20260902234503 70 78 1.0 4.0 0.00 0.02 0.02 51 1007.9
20260902234003 70 41 1.0 3.0 0.00 0.02 0.02 50 1007.9
20260902233503 70 52 1.0 2.0 0.00 0.02 0.02 49 1007.9
20260902233217 70 81 1.0 4.0 0.00 0.02 0.02 49 1008.0
20260902232503 70 97 1.0 4.0 0.00 0.02 0.02 50 1008.0
20260902232003 70 70 1.0 2.0 0.00 0.02 0.02 51 1008.0
20260902231503 69 336 1.0 5.0 0.00 0.02 0.02 51 1008.0
20260902231003 69 351 1.0 5.0 0.00 0.02 0.02 50 1008.1
20260902230503 69 80 1.0 5.0 0.00 0.02 0.02 51 1008.2
20260902230003 69 78 1.0 5.0 0.00 0.02 0.02 51 1008.1
20260902225503 69 62 1.0 5.0 0.00 0.02 0.02 53 1008.2
20260902225003 68 15 1.0 5.0 0.00 0.02 0.02 52 1008.2
20260902224503 69 344 1.0 4.0 0.00 0.02 0.02 54 1008.1
20260902224003 69 36 1.0 4.0 0.00 0.02 0.02 52 1008.3
20260902223503 69 39 1.0 4.0 0.00 0.02 0.02 52 1008.3
20260902223003 69 65 1.0 7.0 0.00 0.02 0.02 52 1008.3
20260902222718 69 84 1.0 7.0 0.00 0.02 0.02 53 1008.3
20260902222217 69 20 1.0 7.0 0.00 0.02 0.02 52 1008.2
20260902221503 68 42 1.0 5.0 0.00 0.02 0.02 54 1008.3
20260902221217 68 68 1.0 3.0 0.00 0.02 0.02 52 1008.4
20260902220503 67 16 1.0 2.0 0.00 0.02 0.02 55 1008.5
20260902220003 67 330 1.0 4.0 0.00 0.02 0.02 55 1008.6
20260902215503 67 335 1.0 5.0 0.00 0.02 0.02 55 1008.7
20260902215003 67 8 1.0 5.0 0.00 0.02 0.02 55 1008.8
20260902214503 67 37 1.0 4.0 0.00 0.02 0.02 53 1008.8
20260902214218 67 360 1.0 4.0 0.00 0.02 0.02 54 1008.9
20260902213503 68 358 1.0 3.0 0.00 0.02 0.02 51 1008.9
20260902213003 68 59 1.0 3.0 0.00 0.02 0.02 53 1008.9
20260902212503 68 83 1.0 5.0 0.00 0.02 0.02 54 1008.9
20260902212003 68 58 1.0 5.0 0.00 0.02 0.02 53 1009.1
20260902211503 68 8 1.0 4.0 0.00 0.02 0.02 52 1009.2
20260902211003 68 13 1.0 4.0 0.00 0.02 0.02 53 1009.3
20260902210503 68 42 1.0 4.0 0.00 0.02 0.02 53 1009.3
20260902210003 67 70 1.0 4.0 0.00 0.02 0.02 54 1009.4
20260902205503 67 70 1.0 8.0 0.00 0.02 0.02 53 1009.3
20260902205003 68 73 1.0 8.0 0.00 0.02 0.02 53 1009.3
20260902204503 68 79 2.0 7.0 0.00 0.02 0.02 55 1009.3
20260902204003 67 81 2.0 8.0 0.00 0.02 0.02 52 1009.4
20260902203503 67 81 1.0 9.0 0.00 0.02 0.02 54 1009.5
20260902203218 67 60 1.0 9.0 0.00 0.02 0.02 54 1009.5